SM4TUV Weather Reports


Display with metric or nautical units.
time (UTC)temp
F
wind
direction
speed
MPH
gust
MPH
rain 1hr
in
rain 24hr
in
rain mn
in
humidity
%
barometer
mb
20260904000333 46 70 2.0 3.0 0.00 0.00 0.00 83 970.1
20260903235431 46 91 3.0 4.0 0.00 0.00 0.00 83 970.0
20260903234531 45 92 2.0 4.0 0.00 0.00 0.00 83 970.3
20260903232732 45 71 2.0 4.0 0.00 0.00 0.00 83 970.3
20260903231831 46 97 3.0 5.0 0.00 0.00 0.00 83 970.2
20260903230931 46 164 3.0 3.0 0.00 0.00 0.00 82 970.2
20260903230031 47 99 4.0 4.0 0.00 0.00 0.00 82 970.3
20260903225131 47 94 3.0 4.0 0.00 0.00 0.00 81 970.3
20260903224231 48 56 2.0 2.0 0.00 0.00 0.00 81 970.4
20260903223331 48 67 2.0 3.0 0.00 0.00 0.00 80 970.4
20260903222432 48 65 2.0 2.0 0.00 0.00 0.00 80 970.5
20260903221531 49 43 3.0 4.0 0.00 0.00 0.00 80 970.5
20260903220631 49 52 3.0 4.0 0.00 0.00 0.00 79 970.5
20260903215731 49 109 3.0 3.0 0.00 0.00 0.00 79 970.6
20260903214831 49 104 3.0 4.0 0.00 0.00 0.00 79 970.5
20260903213932 49 90 3.0 3.0 0.00 0.00 0.00 79 970.6
20260903213031 49 81 2.0 3.0 0.00 0.00 0.00 79 970.6
20260903212131 49 87 3.0 4.0 0.00 0.00 0.00 78 970.7
20260903211231 50 78 3.0 4.0 0.00 0.00 0.00 78 970.6
20260903210331 50 84 3.0 3.0 0.00 0.00 0.00 77 970.6
20260903205432 50 81 3.0 4.0 0.00 0.00 0.00 77 970.6
20260903204531 50 78 3.0 4.0 0.00 0.00 0.00 77 970.6
20260903203631 50 112 2.0 3.0 0.00 0.00 0.00 77 970.4
20260903202731 50 88 2.0 4.0 0.00 0.00 0.00 77 970.4
20260903201831 50 87 3.0 3.0 0.00 0.00 0.00 77 970.4
20260903200931 50 69 3.0 4.0 0.00 0.00 0.00 75 970.6
20260903195131 52 1 0.0 2.0 0.00 0.00 0.00 66 970.7
20260903194231 53 181 1.0 2.0 0.00 0.00 0.00 65 970.7
20260903193331 53 182 2.0 2.0 0.00 0.00 0.00 65 970.7
20260903192431 53 168 1.0 2.0 0.00 0.00 0.00 65 970.9
20260903191531 54 178 2.0 2.0 0.00 0.00 0.00 65 970.6
20260903190631 54 173 2.0 2.0 0.00 0.00 0.00 65 970.8
20260903185731 54 181 3.0 4.0 0.00 0.00 0.00 65 970.6
20260903183931 55 168 1.0 2.0 0.00 0.00 0.00 60 970.7
20260903183031 56 234 2.0 3.0 0.00 0.00 0.00 60 970.7
20260903182131 56 185 1.0 2.0 0.00 0.00 0.00 61 970.7
20260903181231 57 198 1.0 1.0 0.00 0.00 0.00 58 970.8
20260903180331 58 213 1.0 2.0 0.00 0.00 0.00 56 970.8
20260903175431 59 310 1.0 3.0 0.00 0.00 0.00 55 970.8
20260903173631 60 316 3.0 3.0 0.00 0.00 0.00 55 970.9
20260903172731 60 311 1.0 3.0 0.00 0.00 0.00 54 970.9
20260903171831 61 353 1.0 5.0 0.00 0.00 0.00 53 970.9
20260903170931 62 24 4.0 5.0 0.00 0.00 0.00 52 971.0
20260903170031 64 7 4.0 6.0 0.00 0.00 0.00 50 971.0
20260903165131 64 338 7.0 9.0 0.00 0.00 0.00 49 970.8
20260903164231 65 298 6.0 8.0 0.00 0.00 0.00 49 970.9
20260903163331 65 301 4.0 6.0 0.00 0.00 0.00 48 970.9
20260903162431 65 288 6.0 8.0 0.00 0.00 0.00 48 970.9
20260903161531 65 298 4.0 7.0 0.00 0.00 0.00 48 970.9
20260903160631 65 25 6.0 8.0 0.00 0.00 0.00 49 970.8
20260903155731 66 278 5.0 8.0 0.00 0.00 0.00 49 971.0
20260903154831 67 234 6.0 8.0 0.00 0.00 0.00 49 970.9
20260903153031 66 273 5.0 8.0 0.00 0.00 0.00 48 971.0
20260903152131 65 287 6.0 10.0 0.00 0.00 0.00 48 971.1
20260903151231 65 275 10.0 11.0 0.00 0.00 0.00 48 971.2
20260903150331 64 294 8.0 11.0 0.00 0.00 0.00 49 971.2
20260903145431 63 307 6.0 9.0 0.00 0.00 0.00 51 971.2
20260903144531 63 335 5.0 8.0 0.00 0.00 0.00 51 971.2
20260903143631 63 337 6.0 8.0 0.00 0.00 0.00 51 971.1
20260903142731 64 313 4.0 8.0 0.00 0.00 0.00 54 971.4
20260903141831 65 303 3.0 6.0 0.00 0.00 0.00 51 971.1
20260903140031 62 251 4.0 8.0 0.00 0.00 0.00 56 971.3
20260903135131 61 327 2.0 4.0 0.00 0.00 0.00 56 971.3
20260903134231 62 315 4.0 7.0 0.00 0.00 0.00 54 971.2
20260903132432 63 294 8.0 12.0 0.00 0.00 0.00 52 971.4
20260903131531 62 335 5.0 8.0 0.00 0.00 0.00 50 971.4
20260903124831 63 281 4.0 8.0 0.00 0.00 0.00 50 971.4
20260903123932 62 304 5.0 8.0 0.00 0.00 0.00 51 971.3
20260903123031 62 318 6.0 8.0 0.00 0.00 0.00 49 971.3
20260903122131 62 304 5.0 8.0 0.00 0.00 0.00 50 971.4
20260903120331 63 312 5.0 7.0 0.00 0.00 0.00 48 971.4
20260903115431 63 300 7.0 9.0 0.00 0.00 0.00 49 971.4
20260903114531 63 317 5.0 8.0 0.00 0.00 0.00 48 971.3
20260903113631 64 313 7.0 13.0 0.00 0.00 0.00 48 971.4
20260903112731 64 311 5.0 8.0 0.00 0.00 0.00 49 971.2
20260903111831 62 326 7.0 10.0 0.00 0.00 0.00 49 971.3
20260903110932 62 315 6.0 10.0 0.00 0.00 0.00 50 971.3
20260903105131 61 314 7.0 10.0 0.00 0.00 0.00 51 971.4
20260903104231 61 308 7.0 11.0 0.00 0.00 0.00 52 971.4
20260903103331 62 297 8.0 12.0 0.00 0.00 0.00 49 971.3
20260903102431 64 323 8.0 12.0 0.00 0.00 0.00 47 971.3
20260903100631 63 300 8.0 13.0 0.00 0.00 0.00 50 971.3
20260903095731 61 282 9.0 13.0 0.00 0.09 0.00 50 971.5
20260903094831 61 297 7.0 13.0 0.00 0.11 0.00 51 971.4
20260903093031 61 280 8.0 11.0 0.00 0.11 0.00 52 971.4
20260903091231 61 199 5.0 9.0 0.00 0.11 0.00 54 971.3
20260903085431 61 279 5.0 8.0 0.00 0.11 0.00 55 971.6
20260903084531 61 264 5.0 7.0 0.00 0.11 0.00 57 971.4
20260903081831 59 230 8.0 9.0 0.00 0.11 0.00 60 971.4
20260903080932 58 222 7.0 9.0 0.00 0.11 0.00 59 971.5
20260903080031 58 241 8.0 9.0 0.00 0.11 0.00 60 971.5
20260903075131 59 209 6.0 9.0 0.00 0.11 0.00 59 971.6
20260903074231 58 230 6.0 9.0 0.00 0.11 0.00 62 971.5
20260903073331 58 253 6.0 8.0 0.00 0.11 0.00 61 971.5
20260903071531 57 243 5.0 7.0 0.00 0.11 0.00 60 971.5
20260903070631 56 197 6.0 8.0 0.00 0.11 0.00 62 971.7
20260903065731 56 263 4.0 8.0 0.00 0.11 0.00 63 971.5
20260903064831 54 270 5.0 6.0 0.00 0.11 0.00 65 971.6
20260903062131 55 265 5.0 8.0 0.00 0.11 0.00 64 971.5
20260903061231 55 200 3.0 8.0 0.00 0.11 0.00 67 971.5
20260903060331 54 218 4.0 8.0 0.00 0.11 0.00 69 971.5
20260903055431 53 242 5.0 6.0 0.00 0.11 0.00 71 971.6
20260903054531 52 221 6.0 9.0 0.00 0.11 0.00 73 971.5
20260903053631 52 232 6.0 8.0 0.00 0.11 0.00 74 971.5
20260903052732 51 221 6.0 8.0 0.00 0.11 0.00 75 971.3
20260903051831 51 219 5.0 7.0 0.00 0.11 0.00 77 971.3
20260903050931 51 222 5.0 7.0 0.00 0.11 0.00 78 971.2
20260903050032 50 204 5.0 6.0 0.00 0.11 0.00 80 971.4
20260903045131 48 213 5.0 6.0 0.00 0.11 0.00 82 971.2
20260903044232 46 212 4.0 4.0 0.00 0.11 0.00 84 971.3
20260903043331 46 221 3.0 4.0 0.00 0.11 0.00 84 971.1
20260903042432 46 212 4.0 5.0 0.00 0.11 0.00 85 971.1
20260903041531 46 193 4.0 5.0 0.00 0.11 0.00 86 971.1
20260903040631 45 190 3.0 3.0 0.00 0.11 0.00 88 971.1
20260903034831 45 224 2.0 3.0 0.00 0.11 0.00 88 971.2
20260903033932 45 94 2.0 3.0 0.00 0.11 0.00 88 971.1
20260903033032 46 206 3.0 4.0 0.00 0.11 0.00 89 971.1
20260903030331 47 193 3.0 5.0 0.00 0.11 0.00 86 971.2
20260903025432 47 232 4.0 4.0 0.00 0.11 0.00 86 971.0
20260903024531 48 236 3.0 4.0 0.00 0.11 0.00 84 971.2
20260903023631 48 228 3.0 5.0 0.00 0.11 0.00 84 971.2
20260903021831 48 184 4.0 5.0 0.00 0.11 0.00 85 971.1
20260903020932 48 197 3.0 4.0 0.00 0.11 0.00 84 971.1
20260903015131 48 182 4.0 5.0 0.00 0.11 0.00 82 971.3
20260903013331 48 182 4.0 5.0 0.00 0.11 0.00 81 971.4
20260903012432 49 184 4.0 4.0 0.00 0.11 0.00 80 971.3
20260903011531 49 182 4.0 5.0 0.00 0.11 0.00 81 971.4
20260903010631 48 181 4.0 4.0 0.00 0.11 0.00 82 971.6
20260903005731 48 179 5.0 6.0 0.00 0.11 0.00 82 971.4
20260903003932 49 176 3.0 4.0 0.00 0.11 0.00 80 971.6
20260903002131 49 174 3.0 4.0 0.00 0.11 0.00 79 971.7
20260903001231 50 181 3.0 4.0 0.00 0.11 0.00 78 971.7